MPEC 2008-D16 : 2008 DD

The following Minor Planet Electronic Circular may be linked-to from your own Web pages, but must not otherwise be redistributed electronically.


Read MPEC 2008-D15 Read MPEC 2008-D17


M.P.E.C. 2008-D16                                Issued 2008 Feb. 19, 16:16 UT

     The Minor Planet Electronic Circulars contain information on unusual
         minor planets and routine data on comets.  They are published
   on behalf of Commission 20 of the International Astronomical Union by the
          Minor Planet Center, Smithsonian Astrophysical Observatory,
                          Cambridge, MA 02138, U.S.A.

             Prepared using the Tamkin Foundation Computer Network

                              MPC@CFA.HARVARD.EDU
          URL http://www.cfa.harvard.edu/iau/mpc.html  ISSN 1523-6714

                                    2008 DD

Observations:
     K08D00D* C2008 02 18.46946 14 32 53.16 +19 21 07.2          18.9 V ED016703
     K08D00D  C2008 02 18.47604 14 32 54.74 +19 20 30.0          18.9 V ED016703
     K08D00D  C2008 02 18.48923 14 32 57.94 +19 19 13.2          19.0 V ED016703
     K08D00D  C2008 02 18.52282 14 33 06.04 +19 15 58.0          18.5 V ED016703
     K08D00D  C2008 02 18.52470 14 33 06.48 +19 15 47.3          18.7 V ED016703
     K08D00D  C2008 02 18.52659 14 33 06.91 +19 15 33.6          18.0 V ED016703
     K08D00D  C2008 02 18.52846 14 33 07.27 +19 15 25.9          18.3 V ED016703
     K08D00D  C2008 02 18.54727 14 33 11.96 +19 13 35.5          18.3 V ED016703
     K08D00D  C2008 02 18.54769 14 33 12.02 +19 13 33.0          18.3 V ED016703
     K08D00D  C2008 02 18.54813 14 33 12.15 +19 13 30.4          18.5 V ED016703
     K08D00D  C2008 02 18.54854 14 33 12.27 +19 13 29.6          18.9 V ED016703
     K08D00D  C2008 02 19.01771 14 35 16.96 +18 27 16.0                 ED016J95
     K08D00D  C2008 02 19.02235 14 35 18.09 +18 26 49.6          19.0 R ED016J95
     K08D00D  C2008 02 19.02912 14 35 19.84 +18 26 09.8                 ED016J95
     K08D00D  C2008 02 19.03442 14 35 21.19 +18 25 38.6          18.6 R ED016J95
     K08D00D  C2008 02 19.05838 14 35 26.99 +18 23 23.4          18.6 V ED016595
     K08D00D  C2008 02 19.07051 14 35 30.00 +18 22 11.9          18.4 V ED016595
     K08D00D  C2008 02 19.35982 14 36 46.39 +17 53 28.1          18.7 R ED016854
     K08D00D  C2008 02 19.36271 14 36 47.14 +17 53 10.3          18.9 R ED016854
     K08D00D  C2008 02 19.36559 14 36 47.87 +17 52 53.0          18.7 R ED016854
     K08D00D  C2008 02 19.41271 14 36 59.40 +17 48 11.1          18.4 V ED016703
     K08D00D  C2008 02 19.41808 14 37 00.73 +17 47 40.4          18.7 V ED016703
     K08D00D  C2008 02 19.42346 14 37 02.02 +17 47 07.1          18.5 V ED016703
     K08D00D  C2008 02 19.42885 14 37 03.39 +17 46 36.0          18.6 V ED016703

Observer details:
595 Farra d'Isonzo.  Observer E. Pettarin.  0.40-m f/4.5 reflector + CCD.
703 Catalina Sky Survey.  Observer A. Boattini.  Measurers E. C. Beshore,
    A. Boattini, G. J. Garradd, A. R. Gibbs, A. D. Grauer, R. E. Hill,
    R. A. Kowalski, S. M. Larson, R. H. McNaught.  0.68-m Schmidt + CCD.
854 Sabino Canyon Observatory, Tucson.  Observer J. E. McGaha.  0.36-m f/10.0
    Schmidt-Cassegrain + CCD.
J95 Great Shefford.  Observer P. Birtwhistle.  0.40-m f/6.0 Schmidt-Cassegrain
    + CCD.

Orbital elements:
2008 DD                                             PHA, Earth MOID = 0.0499 AU
Epoch 2007 Oct. 27.0 TT = JDT 2454400.5                 MPC
M 307.60248              (2000.0)            P               Q
n   0.37723414     Peri.  186.58862     -0.99903096     +0.03898225
a   1.8969770      Node   355.49155     -0.01783086     -0.78292556
e   0.4508764      Incl.   15.06680     -0.04023921     -0.62089286
P   2.61           H   20.2           G   0.15           U   9
Residuals in seconds of arc
080218 703  0.1+  0.2+    080218 703  0.1-  0.8-    080219 595  0.3+  0.4+
080218 703  0.0   1.0+    080218 703  0.2+  0.8-    080219 854  0.2+  0.1+
080218 703  0.2+  0.3+    080218 703  0.5+  0.8+    080219 854  0.6+  0.5-
080218 703  0.3+  0.4-    080219 J95  0.2+  0.6-    080219 854  0.8+  0.6-
080218 703  0.1+  0.2-    080219 J95  0.5-  0.2+    080219 703  0.5-  0.8-
080218 703 (0.3-  2.9-)   080219 J95  0.1-  0.2+    080219 703  0.3-  0.7+
080218 703  1.6-  0.3+    080219 J95  0.0   0.2+    080219 703  0.6-  0.3-
080218 703  0.5+  0.7-    080219 595  0.2+  0.3+    080219 703  0.1+  1.0+

Ephemeris:
2008 DD                  a,e,i = 1.90, 0.45, 15                  q = 1.0417
Date    TT    R. A. (2000) Decl.     Delta      r     Elong.  Phase     V
2008 02 14    14 13.75   +25 47.9    0.199    1.091   116.6    54.0    18.9
2008 02 24    14 57.14   +09 19.3    0.161    1.063   113.3    58.7    18.5
2008 03 05    15 42.96   -13 23.5    0.147    1.046   108.0    64.4    18.4
2008 03 15    16 31.03   -35 20.8    0.160    1.042   102.8    68.6    18.7
2008 03 25    17 20.14   -50 35.4    0.192    1.049   100.4    69.2    19.2
2008 04 04    18 06.88   -59 47.5    0.233    1.068   100.8    66.9    19.5

Sonia Keys                   (C) Copyright 2008 MPC           M.P.E.C. 2008-D16

Read MPEC 2008-D15 Read MPEC 2008-D17


Our Web policy. Index to the CBAT/MPC/ICQ pages.

MPC

Valid HTML 4.01!